Regional Weather Roundup
Issued by NWS

Home | Current Version | Previous Version | Graphics & Text | Print | Product List | Glossary On
Versions: 1 2 3 4 5 6 7 8 9 10 11 12 13 14 15 16 17 18 19 20 21 22 23 24 25 26 27 28 29 30 31 32 33 34 35 36 37 38 39 40 41 42 43 44 45 46 47 48 49 50
000
ASUS43 KDTX 190601
RWRMI
MICHIGAN HOURLY REGIONAL WEATHER ROUNDUP
NATIONAL WEATHER SERVICE DETROIT/PONTIAC MI
200 AM EDT FRI SEP 19 2014

NOTE: "FAIR" INDICATES FEW OR NO CLOUDS BELOW 12,000 FEET WITH NO
SIGNIFICANT WEATHER AND/OR OBSTRUCTION TO VISIBILITY.

MIZ047>049-052>055-059>063-066>070-074>076-081>083-190700-
SOUTHEAST LOWER MICHIGAN

CITY           SKY/WX    TMP DP  RH WIND       PRES   REMARKS
ADRIAN         MOCLDY    51  47  86 E8        30.24R
6HR MIN TEMP:  50; 6HR MAX TEMP:  58;

ALMA           CLEAR     40  39  95 E3        30.26R
ANN ARBOR      CLEAR     47  41  80 CALM      30.24R
BAD AXE        PTCLDY    34  33  98 CALM      30.26R FOG
6HR MIN TEMP:  34; 6HR MAX TEMP:  45;

CARO           CLEAR     36  36 100 CALM      30.24S FOG
DETROIT CITY   CLEAR     49  42  77 N3        30.25R
6HR MIN TEMP:  49; 6HR MAX TEMP:  57;

DETROIT        PTCLDY    47  43  86 N3        30.24S
6HR MIN TEMP:  47; 6HR MAX TEMP:  59;

FLINT          CLEAR     43  40  89 CALM      30.26R
6HR MIN TEMP:  43; 6HR MAX TEMP:  55;

GROSSE ILE     CLEAR     50  45  81 CALM      30.22S
HILLSDALE      CLEAR     51  51 100 E3        30.22R FOG
HOWELL         CLEAR     43  42  97 CALM      30.24R

CITY           SKY/WX    TMP DP  RH WIND       PRES   REMARKS
JACKSON        CLEAR     49  47  93 E5        30.23R
6HR MIN TEMP:  48; 6HR MAX TEMP:  57;

LAMBERTVILLE   CLEAR     52  46  82 N3        30.23S
LANSING        CLEAR     46  44  93 E6        30.24R
6HR MIN TEMP:  44; 6HR MAX TEMP:  54;

LAPEER         FAIR      37  36  98 CALM      30.25S
MASON          CLEAR     46  45  96 E3        30.24R
MONROE         CLOUDY    52  46  82 E3        30.22R
MT. CLEMENS    CLEAR     44  44 100 W5        30.22S
6HR MIN TEMP:  43; 6HR MAX TEMP:  51;

PONTIAC        CLEAR     43  40  89 CALM      30.23S
6HR MIN TEMP:  43; 6HR MAX TEMP:  54;

PORT HOPE        N/A     52  43  71 E13       30.24R
6HR MIN TEMP:  50; 6HR MAX TEMP:  52;

PORT HURON     FOG       36  36 100 CALM      30.24S VSB 3/4
TRI CITIES     CLEAR     43  39  86 CALM      30.26R
6HR MIN TEMP:  42; 6HR MAX TEMP:  50;

TROY           CLEAR     47  42  82 CALM      30.26R
SAGINAW HB     CLEAR     41  41 100 CALM      30.25S
$$
MIZ043>046-050>051-056>058-064>065-071>073-077>080-190700-
SOUTHWEST LOWER MICHIGAN

CITY           SKY/WX    TMP DP  RH WIND       PRES   REMARKS
BATTLE CREEK   CLEAR     52  48  86 E5        30.22R
6HR MIN TEMP:  51; 6HR MAX TEMP:  61;

BENTON HARBOR  CLEAR     51  49  92 E5        30.19R
6HR MIN TEMP:  50; 6HR MAX TEMP:  60;

BIG RAPIDS     CLEAR     44  44 100 CALM      30.23R
6HR MIN TEMP:  44; 6HR MAX TEMP:  52;

COLDWATER      CLEAR     52  51  93 E5        30.21R FOG
6HR MIN TEMP:  52; 6HR MAX TEMP:  60;

FREMONT        FAIR      48  46  93 SE7       30.21S
HOLLAND        CLEAR     51  48  89 E8        30.21S
6HR MIN TEMP:  50; 6HR MAX TEMP:  62;

GRAND RAPIDS   CLEAR     48  46  93 E7        30.23R
6HR MIN TEMP:  48; 6HR MAX TEMP:  56;

IONIA          MOCLDY    45  44  97 E5        30.23R
KALAMAZOO      CLEAR     49  47  93 CALM      30.22R FOG
6HR MIN TEMP:  48; 6HR MAX TEMP:  63;

LUDINGTON      CLEAR     49  48  95 SE6       30.20R FOG
6HR MIN TEMP:  49; 6HR MAX TEMP:  55;

MARSHALL       PTCLDY    45  44  98 CALM      30.22R FOG
MOUNT PLEASANT CLEAR     40  39  96 CALM      30.25R
6HR MIN TEMP:  39; 6HR MAX TEMP:  49;

MUSKEGON       CLEAR     51  47  86 E8        30.21S
6HR MIN TEMP:  51; 6HR MAX TEMP:  61;

SOUTH HAVEN    CLEAR     52  51  95 E6        30.19S
$$
MIZ016>042-190700-
NORTHERN LOWER MICHIGAN

CITY           SKY/WX    TMP DP  RH WIND       PRES   REMARKS
ALPENA         CLEAR     35  33  92 CALM      30.27R
6HR MIN TEMP:  34; 6HR MAX TEMP:  45;

BEAVER ISLAND  PTCLDY    49  46  92 SE6       30.18S
6HR MIN TEMP:  41; 6HR MAX TEMP:  49;

CADILLAC       CLOUDY    47  44  87 SE10      30.22R
CHARLEVOIX     CLEAR     46  42  85 SE10      30.22S
6HR MIN TEMP:  46; 6HR MAX TEMP:  51;

FRANKFORT      PTCLDY    52  47  84 SE8       30.19R
GAYLORD        PTCLDY    42  38  85 S12       30.22S
6HR MIN TEMP:  41; 6HR MAX TEMP:  50;

GRAYLING       PTCLDY    40  39  95 E5        30.25S
6HR MIN TEMP:  40; 6HR MAX TEMP:  49;

HARBOR SPRINGS CLEAR     43  39  86 NE7       30.21S FOG
HOUGHTON LAKE  CLOUDY    44  40  85 SE6       30.25R
6HR MIN TEMP:  41; 6HR MAX TEMP:  51;

MANISTEE       CLEAR     48  45  87 SE7       30.21R
OSCODA         CLEAR     33  32  96 NW3       30.26R
PELLSTON       MOCLDY    43  40  89 SE7       30.22F
6HR MIN TEMP:  38; 6HR MAX TEMP:  48;

ROGERS CITY    CLEAR     41  39  93 SE5       30.27S
TRAVERSE CITY  PTCLDY    50  46  86 S5        30.19S
6HR MIN TEMP:  47; 6HR MAX TEMP:  53;

$$
MIZ007>008-015-190700-
EASTERN UPPER MICHIGAN

CITY           SKY/WX    TMP DP  RH WIND       PRES   REMARKS
KINROSS        MOCLDY    37  37 100 SE7       30.22S WCI  32
6HR MIN TEMP:  37; 6HR MAX TEMP:  45;

MACKINAC ISLAN CLEAR     46  40  80 SE9G18    30.22S
6HR MIN TEMP:  45; 6HR MAX TEMP:  47;

NEWBERRY       CLEAR     37  37  97 CALM      30.18R
S. S. MARIE    CLEAR     40  36  86 E5        30.22F
6HR MIN TEMP:  39; 6HR MAX TEMP:  46;

$$
MIZ004>006-011>014-085-190700-
CENTRAL UPPER MICHIGAN

CITY           SKY/WX    TMP DP  RH WIND       PRES   REMARKS
MANISTIQUE     PTCLDY    40  39  97 CALM      30.15F
ESCANABA       MOCLDY    41  39  93 CALM      30.16S
6HR MIN TEMP:  39; 6HR MAX TEMP:  50;

MENOMINEE      CLEAR     43  41  93 CALM      30.15F
6HR MIN TEMP:  43; 6HR MAX TEMP:  52;

SAWYER-GWINN   CLEAR     43  40  90 S9        30.13F
$$
MIZ001>003-009>011-084-190700-
WESTERN UPPER MICHIGAN

CITY           SKY/WX    TMP DP  RH WIND       PRES   REMARKS
IRON MOUNTAIN  CLEAR     42  40  92 SE5       30.13F
6HR MIN TEMP:  42; 6HR MAX TEMP:  54;

HOUGHTON       FAIR      46  43  89 S10       30.04F
6HR MIN TEMP:  44; 6HR MAX TEMP:  47;

COPPER HARBOR    N/A     51  46  83 SW10G20   30.02F
6HR MIN TEMP:  46; 6HR MAX TEMP:  51;

IRONWOOD       PTCLDY    50  48  93 S13G23    30.02S
6HR MIN TEMP:  46; 6HR MAX TEMP:  54;

$$

ABBREVIATIONS USED IN REMARKS
   TC - TEMPERATURE IN CELSIUS
  WCI - WIND CHILL INDEX
   HX - HEAT INDEX
  VSB - VISIBILITY



USA.gov is the U.S. government's official web portal to all federal, state and local government web resources and services.